Moore, Oklahoma, United States
Lat: 35.34N, Lon: 97.49W
Wx Zone: OKZ029
Local Info
Past Weather Observations for Wednesday, October 29, 2014

NOTE: This archive is for the closest National Weather Service station to Moore. Information may differ from the station used for current weather conditions.

Click here for Long-term Archive

Time Weather Temperature Dewpoint Humidity Pressure Winds Precip Visibility
23:52
Clear
50°F / 10°C 37°F / 3°C 62% 30.12 in
(1020 mb)
SSE 5.8 mph
(SSE 9 kph)
- 10SM
22:52
Clear
52°F / 11°C 37°F / 3°C 58% 30.12 in
(1020 mb)
SSE 6.9 mph
(SSE 11 kph)
- 10SM
21:52
Clear
54°F / 12°C 36°F / 2°C 51% 30.15 in
(1021 mb)
SSE 3.5 mph
(SSE 6 kph)
- 10SM
20:52
Clear
54°F / 12°C 36°F / 2°C 51% 30.12 in
(1020 mb)
SSE 3.5 mph
(SSE 6 kph)
- 10SM
19:52
Clear
57°F / 14°C 34°F / 1°C 41% 30.12 in
(1020 mb)
SSE 5.8 mph
(SSE 9 kph)
- 10SM
18:52
Clear
57°F / 14°C 34°F / 1°C 41% 30.12 in
(1020 mb)
SE 5.8 mph
(SE 9 kph)
- 10SM
17:52
Clear
63°F / 17°C 30°F / -1°C 30% 30.12 in
(1020 mb)
SE 5.8 mph
(SE 9 kph)
- 10SM
16:52
Clear
70°F / 21°C 27°F / -3°C 20% 30.12 in
(1020 mb)
S 8.1 mph
(S 13 kph)
- 10SM
15:52
Clear
73°F / 23°C 30°F / -1°C 20% 30.15 in
(1021 mb)
S 5.8 mph
(S 9 kph)
- 10SM
14:52
Clear
73°F / 23°C 28°F / -2°C 19% 30.15 in
(1021 mb)
S 9.2 mph
(S 15 kph)
- 10SM
13:52
Clear
72°F / 22°C 32°F / 0°C 23% 30.18 in
(1022 mb)
S 8.1 mph
(S 13 kph)
- 10SM
12:52
Clear
72°F / 22°C 34°F / 1°C 25% 30.21 in
(1023 mb)
SSE 8.1 mph
(SSE 13 kph)
- 10SM
11:52
Clear
70°F / 21°C 36°F / 2°C 29% 30.24 in
(1024 mb)
Variable 6.9 mph
(Variable 11 kph)
- 10SM
10:52
Clear
66°F / 19°C 37°F / 3°C 35% 30.27 in
(1025 mb)
Calm - 10SM
09:52
Clear
63°F / 17°C 39°F / 4°C 42% 30.27 in
(1025 mb)
SW 3.5 mph
(SW 6 kph)
- 10SM
08:52
Clear
57°F / 14°C 43°F / 6°C 59% 30.27 in
(1025 mb)
Calm - 10SM
07:52
Clear
46°F / 8°C 39°F / 4°C 76% 30.24 in
(1024 mb)
Calm - 10SM
06:52
Clear
46°F / 8°C 37°F / 3°C 71% 30.24 in
(1024 mb)
Calm - 10SM
05:52
Clear
48°F / 9°C 37°F / 3°C 66% 30.21 in
(1023 mb)
Calm - 10SM
04:52
Clear
41°F / 5°C 37°F / 3°C 87% 30.21 in
(1023 mb)
Calm - 10SM
03:52
Clear
43°F / 6°C 37°F / 3°C 81% 30.21 in
(1023 mb)
Calm - 10SM
02:52
Clear
46°F / 8°C 37°F / 3°C 71% 30.21 in
(1023 mb)
Calm - 7SM
01:52
Clear
52°F / 11°C 39°F / 4°C 62% 30.21 in
(1023 mb)
NNW 4.6 mph
(NNW 7 kph)
- 10SM
00:52
Partly Cloudy
48°F / 9°C 41°F / 5°C 76% 30.21 in
(1023 mb)
NNW 4.6 mph
(NNW 7 kph)
- 10SM
Time Weather Temperature Dewpoint Humidity Pressure Winds Precip Visibility


Weather for websites

WeatherForYou.com, LLC is not responsible for any damages or problems caused by this service. Current weather conditions are obtained from the closest station including government and personal stations which may have varying degrees of accuracy. Weather forecasts are derived from the NOAA NDFD. Like all things, this site belongs to Jesus Christ... He just trusts me to maintain it. If you have any questions or comments email webmaster@weatherforyou.com

Copyright © 2014, WeatherForYou.com LLC. All rights reserved.